Regional Weather Roundup
Issued by NWS Cleveland, OH

Home | Current Version | Previous Version | Text Only | Print | Product List | Glossary Off
Versions: 1 2 3 4 5 6 7 8 9 10 11 12 13 14 15 16 17 18 19 20 21 22 23 24 25 26 27 28 29 30 31 32 33 34 35 36 37 38 39 40 41 42 43 44 45 46 47 48 49 50

000
ASUS41 KCLE 011210
RWRCLE
OHIO REGIONAL WEATHER ROUNDUP
NATIONAL WEATHER SERVICE WILMINGTON, OH
800 AM EDT WED JUL 01 2015

NOTE: "FAIR" INDICATES FEW OR NO CLOUDS BELOW 12,000 FEET WITH NO
SIGNIFICANT WEATHER AND/OR OBSTRUCTIONS TO VISIBILITY.

OHZ001>008-015>018-024>027-034-035-043-044-011300-
   NORTHWEST OHIO

CITY           SKY/WX    TMP DP  RH WIND       PRES   REMARKS
DEFIANCE       CLOUDY    59  56  89 NW5       29.90R
FINDLAY        CLOUDY    61  59  93 NW8       29.88S FOG
TOLEDO EXPRESS CLOUDY    62  59  90 W9        29.87R
TOLEDO EXEC    CLOUDY    64  60  87 W7        29.88S
LIMA           CLOUDY    59  58  96 NW8       29.91R
$$

OHZ009>014-019>023-028>033-038-089-011300-
   NORTHEAST OHIO

CITY           SKY/WX    TMP DP  RH WIND       PRES   REMARKS
CLE-HOPKINS    LGT RAIN  64  61  90 W7        29.87R FOG
CLE-LAKEFRONT  CLOUDY    65  61  87 NW8       29.84S
CUY CO. ARPT   CLOUDY    64  63  94 NW9       29.85R FOG
LORAIN-ELYRIA  CLOUDY    63  60  90 W6        29.87R FOG
ASHTABULA      LGT RAIN  63  61  93 W9        29.84R FOG
AKRON-CANTON   CLOUDY    63  60  90 W8        29.87R FOG
WOOSTER        CLOUDY    62  60  93 W7        29.88R FOG
MANSFIELD      CLOUDY    60  60 100 NW6       29.89R FOG
YOUNGSTOWN     CLOUDY    63  62  97 SW8       29.85R FOG
$$

OHZ042-051>053-060>062-070>072-077>081-011300-
  SOUTHWEST OHIO

CITY           SKY/WX    TMP DP  RH WIND       PRES   REMARKS
CINC-COVINGTON PTSUNNY   65  63  93 CALM      29.92R FOG
CINC-LUNKEN    FOG       62  62 100 CALM      29.92R VSB 3/4
HAMILTON       SUNNY     63  63 100 CALM      29.93R FOG
DAYTON         MOSUNNY   64  59  83 NW7       29.92R
WRIGHT-PAT AFB SUNNY     64  59  85 VRB5      29.91R
DAYTON GENERAL PTSUNNY   64  60  87 NW3       29.92R
WILMINGTON     FOG       61  59  93 CALM      29.91R VSB 1/4
$$

OHZ036-037-039>041-045>050-054>059-063>069-073>076-082>088-011300-
  CENTRAL AND SOUTHEAST OHIO

CITY           SKY/WX    TMP DP  RH WIND       PRES   REMARKS
COLUMBUS       MOSUNNY   62  60  93 W5        29.89R
OSU AIRPORT    SUNNY     63  60  90 W9        29.89S FOG
BOLTON FIELD   SUNNY     63  61  94 CALM      29.90S FOG
RICKENBACK AFB FOG       60  60  99 S3        29.89S VSB 1/2
NEWARK         PTSUNNY   64  61  90 CALM      29.89S FOG
MARION         CLOUDY    60  58  92 NW7       29.89S FOG
LANCASTER      MOSUNNY   63  61  93 SW5       29.90S FOG
ZANESVILLE     CLOUDY    63  59  87 SW5       29.89S FOG
NEW PHILLY     CLOUDY    63  60  90 W5        29.88S FOG
$$


USA.gov is the U.S. government's official web portal to all federal, state and local government web resources and services.